Weather History for Crystal River, FL

Change the Weather History Date:

Saturday, February 16, 2013

  Actual Average (KBKV) Record (KBKV)
Temperature  
Mean Temperature 50 °F -  
Max Temperature 60 °F 71 °F 84 °F (2001)
Min Temperature 41 °F 46 °F 30 °F (2007)
Degree Days  
Heating Degree Days 14    
Moisture  
Dew Point 38 °F    
Average Humidity 67    
Maximum Humidity 100    
Minimum Humidity 35    
Precipitation  
Precipitation 0.00 in - - ()
Sea Level Pressure  
Sea Level Pressure 30.02 in    
Wind  
Wind Speed 4 mph (WNW)    
Max Wind Speed 20 mph    
Max Gust Speed 32 mph    
Visibility 10 miles    
Events Rain    
Averages and records for this station are not official NWS values.
T = Trace of Precipitation, MM = Missing Value Source: NWS Daily Summary

Daily Weather History Graph

Daily Weather History Graph

Search for Another Location

Airport:

Trip Planner

Search our weather history database for the weather conditions in past years. The results will help you decide how hot, cold, wet, or windy it might be!

Date:

Astronomy

Feb. 16, 2013 Rise Set
Actual Time 7:07 AM EST 6:21 PM EST
Civil Twilight 6:43 AM EST 6:45 PM EST
Nautical Twilight 6:15 AM EST 7:13 PM EST
Astronomical Twilight 5:48 AM EST 7:40 PM EST
Moon 10:54 AM EST No Moon Set
Length of Visible Light 12h 01m
Length of Day
11h 13m
Waxing Crescent, 39% of the Moon is Illuminated
Feb 16
Waxing Crescent
Feb 17
First Quarter
Feb 25
Full
Mar 4
Last Quarter
Mar 11
New

Hourly Weather History & Observations

Time (EST) Temp. Windchill Dew Point Humidity Pressure Visibility Wind Dir Wind Speed Gust Speed Precip Events Conditions
12:15 AM 44.6 °F - 42.8 °F 93% 30.02 in 10.0 mi Calm Calm - N/A   Clear
12:35 AM 44.6 °F - 42.8 °F 93% 30.03 in 10.0 mi Calm Calm - N/A   Clear
12:55 AM 44.6 °F - 42.8 °F 93% 30.03 in 10.0 mi Calm Calm - N/A   Clear
1:15 AM 44.6 °F - 42.8 °F 93% 30.01 in 10.0 mi Calm Calm - N/A   Clear
1:35 AM 46.4 °F - 42.8 °F 87% 30.01 in 10.0 mi Calm Calm - N/A   Clear
1:55 AM 46.4 °F - 42.8 °F 87% 30.00 in 10.0 mi Calm Calm - N/A   Clear
2:15 AM 46.4 °F - 42.8 °F 87% 29.99 in 10.0 mi Calm Calm - N/A   Clear
2:35 AM 46.4 °F - 42.8 °F 87% 29.98 in 10.0 mi Calm Calm - N/A   Clear
2:55 AM 44.6 °F - 42.8 °F 93% 29.98 in 10.0 mi Calm Calm - N/A   Clear
3:15 AM 44.6 °F - 42.8 °F 93% 29.98 in 10.0 mi Calm Calm - N/A   Clear
3:35 AM 44.6 °F - 42.8 °F 93% 29.97 in 10.0 mi Calm Calm - N/A   Clear
3:55 AM 44.6 °F - 42.8 °F 93% 29.97 in 10.0 mi Calm Calm - N/A   Clear
4:15 AM 42.8 °F - 42.8 °F 100% 29.97 in 7.0 mi Calm Calm - N/A   Clear
4:35 AM 42.8 °F - 42.8 °F 100% 29.97 in 7.0 mi Calm Calm - N/A   Clear
4:55 AM 42.8 °F - 41.0 °F 93% 29.97 in 7.0 mi Calm Calm - N/A   Clear
5:15 AM 42.8 °F - 41.0 °F 93% 29.98 in 7.0 mi Calm Calm - N/A   Clear
5:35 AM 41.0 °F - 41.0 °F 100% 29.98 in 7.0 mi Calm Calm - N/A   Clear
6:15 AM 41.0 °F - 39.2 °F 93% 29.97 in 7.0 mi Calm Calm - N/A   Clear
6:35 AM 41.0 °F - 39.2 °F 93% 29.97 in 10.0 mi Calm Calm - N/A   Clear
6:55 AM 41.0 °F - 39.2 °F 93% 29.97 in 7.0 mi Calm Calm - N/A   Clear
7:15 AM 41.0 °F - 37.4 °F 87% 29.97 in 7.0 mi Calm Calm - N/A   Clear
7:35 AM 41.0 °F - 37.4 °F 87% 29.97 in 5.0 mi Calm Calm - N/A   Clear
7:55 AM 41.0 °F - 39.2 °F 93% 29.97 in 7.0 mi Calm Calm - N/A   Clear
8:15 AM 42.8 °F - 41.0 °F 93% 29.98 in 10.0 mi Calm Calm - N/A   Clear
8:35 AM 44.6 °F - 42.8 °F 93% 29.98 in 10.0 mi Calm Calm - N/A   Clear
8:55 AM 46.4 °F - 44.6 °F 93% 29.98 in 10.0 mi Calm Calm - N/A   Clear
9:15 AM 50.0 °F - 46.4 °F 87% 29.99 in 10.0 mi Calm Calm - N/A   Clear
9:35 AM 53.6 °F - 48.2 °F 82% 30.00 in 10.0 mi Calm Calm - N/A   Clear
9:55 AM 57.2 °F - 48.2 °F 72% 30.01 in 10.0 mi West 4.6 mph - N/A   Clear
10:15 AM 59.0 °F - 50.0 °F 72% 30.01 in 10.0 mi West 3.5 mph - N/A   Clear
10:35 AM 60.8 °F - 48.2 °F 63% 30.01 in 10.0 mi WNW 6.9 mph - N/A   Scattered Clouds
1:15 PM 59.0 °F - 42.8 °F 55% 30.00 in 10.0 mi WNW 9.2 mph 17.3 mph N/A   Overcast
1:35 PM 60.8 °F - 41.0 °F 48% 30.00 in 10.0 mi NW 13.8 mph 20.7 mph N/A   Mostly Cloudy
1:55 PM 59.0 °F - 39.2 °F 48% 30.01 in 10.0 mi NW 10.4 mph 17.3 mph N/A   Mostly Cloudy
2:15 PM 59.0 °F - 41.0 °F 51% 29.99 in 10.0 mi WNW 12.7 mph 17.3 mph N/A   Mostly Cloudy
2:35 PM 57.2 °F - 41.0 °F 55% 30.00 in 10.0 mi WNW 10.4 mph 18.4 mph N/A   Mostly Cloudy
2:55 PM 59.0 °F - 41.0 °F 51% 30.00 in 10.0 mi NW 10.4 mph 18.4 mph N/A   Scattered Clouds
3:15 PM 59.0 °F - 37.4 °F 45% 30.01 in 10.0 mi WNW 13.8 mph 21.9 mph N/A   Clear
3:35 PM 57.2 °F - 37.4 °F 48% 30.01 in 10.0 mi WNW 17.3 mph 29.9 mph N/A   Clear
3:55 PM 55.4 °F - 39.2 °F 54% 30.02 in 10.0 mi WNW 16.1 mph 26.5 mph N/A   Scattered Clouds
4:15 PM 55.4 °F - 37.4 °F 51% 30.02 in 10.0 mi WNW 11.5 mph 21.9 mph N/A   Mostly Cloudy
4:35 PM 55.4 °F - 37.4 °F 51% 30.01 in 10.0 mi WNW 12.7 mph 26.5 mph N/A   Scattered Clouds
4:55 PM 55.4 °F - 35.6 °F 47% 30.01 in 10.0 mi West 17.3 mph 21.9 mph N/A   Scattered Clouds
5:15 PM 55.4 °F - 35.6 °F 47% 30.01 in 10.0 mi WNW 12.7 mph 20.7 mph N/A   Scattered Clouds
5:35 PM 53.6 °F - 35.6 °F 51% 30.02 in 10.0 mi WNW 9.2 mph 18.4 mph N/A   Mostly Cloudy
5:55 PM 53.6 °F - 35.6 °F 51% 30.02 in 10.0 mi WNW 8.1 mph - N/A   Mostly Cloudy
6:15 PM 53.6 °F - 35.6 °F 51% 30.02 in 10.0 mi West 10.4 mph - N/A   Overcast
6:35 PM 53.6 °F - 33.8 °F 47% 30.02 in 10.0 mi WNW 11.5 mph 23.0 mph N/A   Overcast
6:55 PM 53.6 °F - 33.8 °F 47% 30.03 in 10.0 mi West 12.7 mph 21.9 mph N/A   Mostly Cloudy
7:15 PM 53.6 °F - 33.8 °F 47% 30.03 in 10.0 mi West 19.6 mph 29.9 mph N/A   Scattered Clouds
7:35 PM 53.6 °F - 32.0 °F 44% 30.04 in 10.0 mi West 15.0 mph 32.2 mph N/A   Scattered Clouds
7:55 PM 53.6 °F - 32.0 °F 44% 30.04 in 10.0 mi West 11.5 mph 28.8 mph N/A   Mostly Cloudy
8:15 PM 53.6 °F - 33.8 °F 47% 30.05 in 10.0 mi West 19.6 mph 26.5 mph N/A   Overcast
8:35 PM 53.6 °F - 30.2 °F 41% 30.07 in 10.0 mi NW 12.7 mph 24.2 mph N/A Rain Light Rain
8:55 PM 53.6 °F - 28.4 °F 38% 30.08 in 10.0 mi NW 8.1 mph 19.6 mph N/A   Overcast
9:15 PM 51.8 °F - 26.6 °F 38% 30.10 in 10.0 mi NNW 9.2 mph 16.1 mph N/A   Overcast
9:35 PM 50.0 °F - 24.8 °F 37% 30.13 in 10.0 mi NNW 11.5 mph 24.2 mph N/A   Overcast
9:55 PM 50.0 °F - 23.0 °F 35% 30.14 in 10.0 mi NNW 10.4 mph 20.7 mph N/A   Overcast
10:15 PM 48.2 °F - 24.8 °F 40% 30.15 in 10.0 mi NNW 10.4 mph - N/A   Mostly Cloudy
10:35 PM 46.4 °F 41.5 °F 23.0 °F 40% 30.16 in 10.0 mi NNW 10.4 mph 17.3 mph N/A   Scattered Clouds
11:15 PM 44.6 °F 38.4 °F 21.2 °F 39% 30.17 in 10.0 mi NNW 12.7 mph 16.1 mph N/A   Clear
11:35 PM 44.6 °F 40.2 °F 21.2 °F 39% 30.19 in 10.0 mi NNW 8.1 mph - N/A   Clear
11:55 PM 44.6 °F 40.2 °F 19.4 °F 37% 30.19 in 10.0 mi NNW 8.1 mph - N/A   Clear